Weather History for KCKC - February, 2014

Change the Weather History Date:

Thursday, February 20, 2014

  Actual Average Record
Temperature  
Mean Temperature 24 °F -  
Max Temperature 30 °F 22 °F 39 °F (1997)
Min Temperature 19 °F 6 °F -18 °F (2008)
Degree Days  
Heating Degree Days 40    
Moisture  
Dew Point 17 °F    
Average Humidity 70    
Maximum Humidity 86    
Minimum Humidity 60    
Precipitation  
Precipitation 0.00 in - - ()
Sea Level Pressure  
Sea Level Pressure 29.57 in    
Wind  
Wind Speed 12 mph (ENE)    
Max Wind Speed 22 mph    
Max Gust Speed 29 mph    
Visibility 7 miles    
Events Snow    
Averages and records for this station are not official NWS values.
T = Trace of Precipitation, MM = Missing Value Source: NWS Daily Summary

Daily Weather History Graph

Daily Weather History Graph

Search for Another Location

Airport or City:

Trip Planner

Search our weather history database for the weather conditions in past years. The results will help you decide how hot, cold, wet, or windy it might be!

Date:

Astronomy

Feb. 20, 2014 Rise Set
Actual Time 6:58 AM CST 5:32 PM CST
Civil Twilight 6:27 AM CST 6:03 PM CST
Nautical Twilight 5:51 AM CST 6:39 PM CST
Astronomical Twilight 5:15 AM CST 7:15 PM CST
Moon 11:55 PM CST (2/20) 9:15 AM CST (2/20)
Length of Visible Light 11h 36m
Length of Day
10h 33m
Waning Gibbous, 70% of the Moon is Illuminated
Feb 20
Waning Gibbous
Feb 22
Last Quarter
Mar 1
New
Mar 8
First Quarter
Mar 16
Full

Hourly Weather History & Observations

Time (CST) Temp. Windchill Dew Point Humidity Pressure Visibility Wind Dir Wind Speed Gust Speed Precip Events Conditions
12:13 AM 24.8 °F 16.1 °F 15.8 °F 69% 29.76 in 10.0 mi ENE 8.1 mph - N/A   Mostly Cloudy
12:34 AM 24.8 °F 16.1 °F 15.8 °F 69% 29.76 in 10.0 mi East 8.1 mph - N/A   Mostly Cloudy
12:53 AM 24.8 °F 14.6 °F 15.8 °F 69% 29.76 in 10.0 mi East 10.4 mph 17.3 mph N/A   Mostly Cloudy
1:13 AM 23.0 °F 11.7 °F 14.0 °F 68% 29.76 in 10.0 mi ENE 11.5 mph - N/A   Scattered Clouds
1:34 AM 21.2 °F 11.7 °F 12.2 °F 68% 29.76 in 10.0 mi ENE 8.1 mph 20.7 mph N/A   Scattered Clouds
1:53 AM 21.2 °F 9.5 °F 12.2 °F 68% 29.77 in 10.0 mi ENE 11.5 mph 17.3 mph N/A   Scattered Clouds
2:13 AM 21.2 °F 10.9 °F 12.2 °F 68% 29.78 in 10.0 mi East 9.2 mph - N/A   Scattered Clouds
2:34 AM 21.2 °F 10.1 °F 10.4 °F 63% 29.78 in 10.0 mi ENE 10.4 mph 16.1 mph N/A   Scattered Clouds
2:53 AM 21.2 °F 10.1 °F 10.4 °F 63% 29.77 in 10.0 mi ENE 10.4 mph - N/A   Mostly Cloudy
3:14 AM 21.2 °F 9.5 °F 10.4 °F 63% 29.76 in 10.0 mi ENE 11.5 mph - N/A   Scattered Clouds
3:34 AM 21.2 °F 10.9 °F 10.4 °F 63% 29.76 in 10.0 mi East 9.2 mph - N/A   Scattered Clouds
3:53 AM 21.2 °F 10.1 °F 10.4 °F 63% 29.74 in 10.0 mi ENE 10.4 mph 17.3 mph N/A   Overcast
4:14 AM 21.2 °F 8.3 °F 10.4 °F 63% 29.73 in 10.0 mi ENE 13.8 mph - N/A   Mostly Cloudy
4:33 AM 19.4 °F 6.6 °F 10.4 °F 68% 29.73 in 10.0 mi ENE 12.7 mph 18.4 mph N/A   Scattered Clouds
4:54 AM 19.4 °F 6.6 °F 10.4 °F 68% 29.72 in 10.0 mi ENE 12.7 mph 18.4 mph N/A   Mostly Cloudy
5:13 AM 19.4 °F 6.6 °F 10.4 °F 68% 29.71 in 10.0 mi ENE 12.7 mph 16.1 mph N/A   Mostly Cloudy
5:34 AM 21.2 °F 10.1 °F 12.2 °F 68% 29.71 in 10.0 mi ENE 10.4 mph - N/A   Mostly Cloudy
5:53 AM 19.4 °F 7.9 °F 12.2 °F 74% 29.70 in 10.0 mi NE 10.4 mph - N/A   Scattered Clouds
6:13 AM 21.2 °F 9.5 °F 12.2 °F 68% 29.71 in 10.0 mi ENE 11.5 mph 18.4 mph N/A   Clear
6:34 AM 21.2 °F 9.5 °F 14.0 °F 74% 29.70 in 10.0 mi East 11.5 mph 20.7 mph N/A   Clear
6:53 AM 21.2 °F 9.5 °F 14.0 °F 74% 29.70 in 10.0 mi East 11.5 mph 18.4 mph N/A   Clear
7:13 AM 21.2 °F 8.9 °F 14.0 °F 74% 29.70 in 10.0 mi East 12.7 mph 18.4 mph N/A   Clear
7:34 AM 21.2 °F 9.5 °F 14.0 °F 74% 29.70 in 10.0 mi ENE 11.5 mph 19.6 mph N/A   Scattered Clouds
7:53 AM 21.2 °F 9.5 °F 12.2 °F 68% 29.69 in 10.0 mi ENE 11.5 mph 18.4 mph N/A   Mostly Cloudy
8:14 AM 21.2 °F 7.8 °F 12.2 °F 68% 29.69 in 10.0 mi ENE 15.0 mph 21.9 mph N/A   Mostly Cloudy
8:33 AM 21.2 °F 8.9 °F 12.2 °F 68% 29.68 in 10.0 mi ENE 12.7 mph 20.7 mph N/A   Mostly Cloudy
8:53 AM 23.0 °F 10.6 °F 14.0 °F 68% 29.68 in 10.0 mi ENE 13.8 mph 18.4 mph N/A   Scattered Clouds
9:14 AM 24.8 °F 12.9 °F 15.8 °F 69% 29.67 in 5.0 mi ENE 13.8 mph 25.3 mph N/A Snow Light Snow
9:33 AM 24.8 °F 14.0 °F 15.8 °F 69% 29.66 in 5.0 mi ENE 11.5 mph 18.4 mph N/A Snow Light Snow
9:54 AM 26.6 °F 15.2 °F 15.8 °F 64% 29.65 in 5.0 mi ENE 13.8 mph 19.6 mph N/A Snow Light Snow
10:13 AM 26.6 °F 14.3 °F 17.6 °F 69% 29.64 in 4.0 mi East 16.1 mph 25.3 mph N/A Snow Light Snow
10:34 AM 28.4 °F 19.1 °F 17.6 °F 64% 29.63 in 5.0 mi East 10.4 mph 19.6 mph N/A Snow Light Snow
10:53 AM 28.4 °F 17.5 °F 17.6 °F 64% 29.64 in 4.0 mi East 13.8 mph 21.9 mph N/A Snow Light Snow
11:13 AM 28.4 °F 18.0 °F 17.6 °F 64% 29.63 in 5.0 mi East 12.7 mph 19.6 mph N/A Snow Light Snow
11:34 AM 30.2 °F 18.9 °F 17.6 °F 60% 29.63 in 4.0 mi East 16.1 mph 20.7 mph N/A Snow Light Snow
11:53 AM 30.2 °F 19.8 °F 17.6 °F 60% 29.62 in 4.0 mi ENE 13.8 mph 20.7 mph N/A Snow Light Snow
12:13 PM 30.2 °F 21.3 °F 17.6 °F 60% 29.61 in 10.0 mi East 10.4 mph 21.9 mph N/A   Clear
12:34 PM 28.4 °F 17.5 °F 17.6 °F 64% 29.60 in 10.0 mi East 13.8 mph 23.0 mph N/A   Clear
12:54 PM 30.2 °F 21.3 °F 17.6 °F 60% 29.59 in 10.0 mi East 10.4 mph - N/A   Clear
1:13 PM 30.2 °F 20.2 °F 17.6 °F 60% 29.58 in 10.0 mi East 12.7 mph 20.7 mph N/A   Clear
1:34 PM 30.2 °F 21.3 °F 17.6 °F 60% 29.57 in 10.0 mi East 10.4 mph - N/A   Clear
1:54 PM 30.2 °F 21.3 °F 17.6 °F 60% 29.56 in 10.0 mi East 10.4 mph 18.4 mph N/A   Scattered Clouds
2:13 PM 30.2 °F 20.8 °F 17.6 °F 60% 29.55 in 10.0 mi East 11.5 mph 18.4 mph N/A   Scattered Clouds
2:33 PM 30.2 °F 21.3 °F 17.6 °F 60% 29.55 in 10.0 mi East 10.4 mph 17.3 mph N/A   Scattered Clouds
2:54 PM 30.2 °F 21.9 °F 17.6 °F 60% 29.55 in 10.0 mi ENE 9.2 mph 16.1 mph N/A   Scattered Clouds
3:13 PM 30.2 °F 19.8 °F 19.4 °F 64% 29.54 in 10.0 mi ENE 13.8 mph 19.6 mph N/A   Clear
3:34 PM 30.2 °F 19.3 °F 19.4 °F 64% 29.52 in 10.0 mi ENE 15.0 mph 18.4 mph N/A   Clear
3:53 PM 30.2 °F 20.2 °F 19.4 °F 64% 29.51 in 10.0 mi ENE 12.7 mph - N/A   Scattered Clouds
4:14 PM 28.4 °F 17.5 °F 17.6 °F 64% 29.51 in 10.0 mi ENE 13.8 mph - N/A   Scattered Clouds
4:34 PM 28.4 °F 17.5 °F 19.4 °F 69% 29.50 in 10.0 mi NE 13.8 mph 18.4 mph N/A   Scattered Clouds
4:53 PM 28.4 °F 19.1 °F 19.4 °F 69% 29.50 in 10.0 mi NE 10.4 mph - N/A   Overcast
5:14 PM 26.6 °F 16.8 °F 19.4 °F 74% 29.49 in 10.0 mi NE 10.4 mph - N/A   Overcast
5:34 PM 26.6 °F 16.2 °F 19.4 °F 74% 29.49 in 10.0 mi NE 11.5 mph - N/A   Overcast
5:53 PM 26.6 °F 16.8 °F 19.4 °F 74% 29.50 in 10.0 mi NNE 10.4 mph - N/A   Overcast
6:14 PM 26.6 °F 14.7 °F 19.4 °F 74% 29.47 in 10.0 mi North 15.0 mph 19.6 mph N/A   Mostly Cloudy
6:33 PM 26.6 °F 14.7 °F 19.4 °F 74% 29.46 in 10.0 mi NNE 15.0 mph - N/A   Mostly Cloudy
6:54 PM 26.6 °F 15.2 °F 21.2 °F 80% 29.44 in 1.2 mi NNE 13.8 mph - N/A Snow Light Snow
7:13 PM 24.8 °F 11.9 °F 21.2 °F 86% 29.43 in 1.5 mi North 16.1 mph - N/A Snow Light Snow
7:33 PM 24.8 °F 13.4 °F 21.2 °F 86% 29.41 in 2.5 mi NNE 12.7 mph 18.4 mph N/A Snow Light Snow
7:54 PM 26.6 °F 14.7 °F 21.2 °F 80% 29.38 in 1.5 mi NNE 15.0 mph 19.6 mph N/A Snow Light Snow
8:13 PM 26.6 °F 15.2 °F 21.2 °F 80% 29.36 in 1.0 mi NNE 13.8 mph 19.6 mph N/A Snow Snow
8:34 PM 26.6 °F 13.8 °F 21.2 °F 80% 29.35 in 1.0 mi NNE 17.3 mph 24.2 mph N/A Snow Snow
8:53 PM 24.8 °F 11.5 °F 21.2 °F 86% 29.34 in 0.8 mi NE 17.3 mph 25.3 mph N/A Snow Snow
9:13 PM 24.8 °F 11.9 °F 19.4 °F 80% 29.31 in 0.8 mi NNE 16.1 mph 25.3 mph N/A Snow Snow
9:34 PM 24.8 °F 10.3 °F 21.2 °F 86% 29.27 in 0.5 mi NNE 20.7 mph 26.5 mph N/A Snow Snow
9:53 PM 24.8 °F 11.9 °F 21.2 °F 86% 29.26 in 0.5 mi NNE 16.1 mph 23.0 mph N/A Snow Heavy Snow
10:13 PM 24.8 °F 12.9 °F 21.2 °F 86% 29.24 in 0.2 mi NE 13.8 mph 20.7 mph N/A Snow Heavy Snow
10:34 PM 26.6 °F 12.4 °F 21.2 °F 80% 29.20 in 0.2 mi NE 21.9 mph 28.8 mph N/A Snow Heavy Snow
10:54 PM 26.6 °F 12.7 °F 21.2 °F 80% 29.17 in 0.2 mi NNE 20.7 mph 26.5 mph N/A Snow Heavy Snow
11:13 PM 26.6 °F 13.1 °F 21.2 °F 80% 29.18 in 0.2 mi NE 19.6 mph 25.3 mph N/A Snow Heavy Snow
11:34 PM 24.8 °F 11.9 °F 21.2 °F 86% 29.16 in 0.2 mi NNE 16.1 mph 25.3 mph N/A Snow Heavy Snow
11:54 PM 24.8 °F 13.4 °F 21.2 °F 86% 29.14 in 0.5 mi NNE 12.7 mph 26.5 mph N/A Snow Snow